Flag for U.S.A. Weather past 2 weeks in Frankfort, Kentucky, U.S.A.

Now
47 °F

Overcast.


Feels Like: 47 °F
Forecast: 35 / 62 °F
Wind: No wind

Location: Capital City Airport

Current Time: Oct 23, 2014 at 7:04:07 AM

Latest Report: Oct 23, 2014 at 5:53 AM


Visibility: 10 mi

Pressure: 30.24 "Hg

Humidity: 71%

Dew point: 38 °F

Location of FrankfortLocation

Historic Weather in Frankfort — Graph

°F

Frankfort temperature yesterday

Maximum temperature yesterday: 58 °F (at 3:53 PM)
Minimum temperature yesterday: 42 °F (at 11:53 PM)
Average temperature yesterday: 49 °F

Past Weeks' High & Low Weather Summary

 TemperatureHumidityPressure
High77 °F (Oct 13, 4:53 PM)97% (Oct 10, 4:53 AM)30.29 "Hg (Oct 10, 4:53 AM)
Low42 °F (Oct 20, 1:53 AM)32% (Oct 8, 2:53 PM)29.59 "Hg (Oct 14, 9:53 AM)
Average56 °F79%29.98 "Hg
* Reported Oct 8 5:53 AM — Oct 23 5:53 AM, Frankfort, Weather by CustomWeather, © 2014

Note: Actual official high and low records may vary slightly from our data, if they occured in-between our weather recording intervals... More about our weather records

Advertising

Frankfort weather history for previous 24 hours

 ConditionsComfort  
Time TempWeatherWind HumidityBarometerVisibility
5:53 AM
Oct 23
47 °FOvercast.No wind71%30.24 "Hg10 mi
4:53 AM48 °FOvercast.5 mph68%30.24 "Hg10 mi
3:53 AM48 °FOvercast.6 mph71%30.25 "Hg10 mi
2:53 AM48 °FOvercast.5 mph77%30.25 "Hg10 mi
1:53 AM46 °FOvercast.3 mph83%30.24 "Hg10 mi
12:53 AM45 °FOvercast.No wind80%30.24 "Hg10 mi
11:53 PM
Oct 22
42 °FPassing clouds.No wind85%30.25 "Hg10 mi
10:53 PM48 °FClear.5 mph74%30.26 "Hg10 mi
9:53 PM49 °FPassing clouds.6 mph71%30.26 "Hg10 mi
8:53 PM50 °FPassing clouds.7 mph68%30.26 "Hg10 mi
7:53 PM51 °FClear.3 mph66%30.25 "Hg10 mi
6:53 PM53 °FSunny.3 mph59%30.24 "Hg10 mi
5:53 PM55 °FSunny.6 mph55%30.24 "Hg10 mi
4:53 PM57 °FScattered clouds.7 mph51%30.24 "Hg10 mi
3:53 PM58 °FScattered clouds.5 mph50%30.24 "Hg10 mi
2:53 PM57 °FScattered clouds.8 mph53%30.25 "Hg10 mi
1:53 PM56 °FPassing clouds.7 mph55%30.27 "Hg10 mi
12:53 PM55 °FPassing clouds.5 mph59%30.29 "Hg10 mi
11:53 AM52 °FScattered clouds.8 mph64%30.29 "Hg10 mi
10:53 AM49 °FPassing clouds.7 mph69%30.28 "Hg10 mi
9:53 AM48 °FSunny.7 mph71%30.27 "Hg10 mi
8:53 AM46 °FOvercast.5 mph73%30.25 "Hg10 mi
7:53 AM44 °FOvercast.3 mph76%30.24 "Hg10 mi
Weather by CustomWeather, © 2014

See weather overviewHow to use our weather pages